Rolla, ND

9:11 PM CDT on March 22, 2017 (GMT -0500)
Rolla

Weather History for K06D - January, 2013

Change the Weather History Date:

Wednesday, January 30, 2013

  Actual Average (KRUG) Record (KRUG)
Temperature  
Mean Temperature -6 °F -  
Max Temperature 6 °F 16 °F 42 °F (1964)
Min Temperature -18 °F -3 °F -38 °F (1950)
Degree Days  
Heating Degree Days 71    
Moisture  
Dew Point -14 °F    
Average Humidity 77    
Maximum Humidity 92    
Minimum Humidity 70    
Precipitation  
Precipitation 0.04 in - - ()
Sea Level Pressure  
Sea Level Pressure 29.90 in    
Wind  
Wind Speed 19 mph (NNW)    
Max Wind Speed 24 mph    
Max Gust Speed 30 mph    
Visibility 5 miles    
Events Rain , Snow    
Averages and records for this station are not official NWS values.
T = Trace of Precipitation, MM = Missing Value Source: NWS Daily Summary

Daily Weather History Graph

Daily Weather History Graph

Search for Another Location

Airport or City:

Trip Planner

Search our weather history database for the weather conditions in past years. The results will help you decide how hot, cold, wet, or windy it might be!

Date:

Astronomy

Jan. 30, 2013 Rise Set
Actual Time 8:10 AM CST 5:33 PM CST
Civil Twilight 7:36 AM CST 6:07 PM CST
Nautical Twilight 6:58 AM CST 6:45 PM CST
Astronomical Twilight 6:21 AM CST 7:22 PM CST
Moon 10:00 PM CST (1/30) 9:16 AM CST (1/30)
Length of Visible Light 10h 30m
Length of Day
9h 22m
Waning Gibbous, 87% of the Moon is Illuminated
Jan 30
Waning Gibbous
Feb 3
Last Quarter
Feb 10
New
Feb 17
First Quarter
Feb 25
Full

Hourly Weather History & Observations

Time (CST) Temp. Windchill Dew Point Humidity Pressure Visibility Wind Dir Wind Speed Gust Speed Precip Events Conditions
12:15 AM 6.8 °F -14.3 °F 3.2 °F 85% 29.97 in 5.0 mi NNW 23.0 mph - N/A Snow Light Snow
12:35 AM 5.0 °F -15.2 °F 1.4 °F 85% 29.97 in 5.0 mi NNW 19.6 mph 25.3 mph 0.01 in Snow Light Snow
12:55 AM 5.0 °F -14.7 °F 1.4 °F 85% 29.97 in 6.0 mi NNW 18.4 mph - 0.01 in Snow Light Snow
1:15 AM 5.0 °F -15.7 °F 1.4 °F 85% 29.96 in 8.0 mi NW 20.7 mph - N/A Snow Light Snow
1:35 AM 5.0 °F -16.2 °F -0.4 °F 78% 29.96 in 7.0 mi NNW 21.9 mph - N/A   Overcast
1:55 AM 1.4 °F -19.4 °F -0.4 °F 92% 29.95 in 7.0 mi NNW 18.4 mph - N/A Snow Light Snow
2:15 AM 1.4 °F -21.9 °F -0.4 °F 92% 29.94 in 7.0 mi NW 24.2 mph - N/A Snow Light Snow
2:35 AM 1.4 °F -20.5 °F -2.2 °F 85% 29.94 in 5.0 mi NW 20.7 mph - N/A Snow Light Snow
2:55 AM 1.4 °F -21.0 °F -2.2 °F 85% 29.93 in 5.0 mi NNW 21.9 mph - N/A Snow Light Snow
3:15 AM -0.4 °F -22.3 °F -2.2 °F 92% 29.92 in 9.0 mi NNW 19.6 mph - N/A Rain Light Freezing Rain
3:35 AM -0.4 °F -21.7 °F -4.0 °F 85% 29.92 in 8.0 mi NNW 18.4 mph - N/A   Overcast
3:55 AM -0.4 °F -22.8 °F -4.0 °F 85% 29.92 in 10.0 mi NNW 20.7 mph - N/A   Overcast
4:15 AM -0.4 °F -21.2 °F -5.8 °F 78% 29.92 in 10.0 mi NW 17.3 mph - N/A   Overcast
4:35 AM -0.4 °F -19.2 °F -5.8 °F 78% 29.91 in 10.0 mi NW 13.8 mph - N/A   Overcast
4:55 AM -0.4 °F -21.2 °F -5.8 °F 78% 29.91 in 10.0 mi NW 17.3 mph - N/A   Overcast
5:15 AM -2.2 °F -23.5 °F -7.6 °F 78% 29.91 in 10.0 mi NNW 17.3 mph - N/A   Overcast
5:35 AM -2.2 °F -24.1 °F -7.6 °F 78% 29.91 in 10.0 mi NW 18.4 mph - N/A   Overcast
5:55 AM -4.0 °F -27.0 °F -9.4 °F 78% 29.90 in 10.0 mi NNW 19.6 mph - N/A   Overcast
6:15 AM -4.0 °F -28.1 °F -9.4 °F 78% 29.89 in 5.0 mi NW 21.9 mph - N/A   Haze
6:35 AM -4.0 °F -27.0 °F -9.4 °F 78% 29.89 in 9.0 mi NW 19.6 mph - N/A   Overcast
6:55 AM -4.0 °F -26.4 °F -9.4 °F 78% 29.89 in 10.0 mi NNW 18.4 mph - N/A   Overcast
7:15 AM -4.0 °F -28.1 °F -9.4 °F 78% 29.89 in 6.0 mi NNW 21.9 mph - N/A   Haze
7:35 AM -4.0 °F -25.2 °F -9.4 °F 78% 29.90 in 4.0 mi NNW 16.1 mph - N/A Snow Light Snow
7:55 AM -4.0 °F -26.4 °F -9.4 °F 78% 29.89 in 3.0 mi NNW 18.4 mph - N/A Snow Light Snow
8:15 AM -5.8 °F -28.2 °F -9.4 °F 84% 29.90 in 3.0 mi NW 17.3 mph - N/A Snow Light Snow
8:35 AM -7.6 °F -28.3 °F -11.2 °F 84% 29.90 in 5.0 mi NNW 13.8 mph - N/A Snow Light Snow
8:55 AM -7.6 °F -27.5 °F -11.2 °F 84% 29.90 in 10.0 mi NW 12.7 mph - N/A   Overcast
9:15 AM -7.6 °F -28.3 °F - N/A% 29.89 in 10.0 mi NW 13.8 mph - N/A Snow Light Snow
9:35 AM -7.6 °F -27.5 °F -13.0 °F 77% 29.89 in 3.0 mi NW 12.7 mph - N/A Snow Light Snow
9:55 AM -7.6 °F -24.6 °F -13.0 °F 77% 29.89 in 5.0 mi NW 9.2 mph - 0.01 in Snow Light Snow
10:15 AM -7.6 °F -25.7 °F -13.0 °F 77% 29.89 in 4.0 mi NNW 10.4 mph - N/A Snow Light Snow
10:35 AM -7.6 °F -27.5 °F -13.0 °F 77% 29.89 in 3.0 mi NNW 12.7 mph - 0.01 in Snow Light Snow
10:55 AM -7.6 °F -27.5 °F -13.0 °F 77% 29.88 in 5.0 mi NNW 12.7 mph - 0.02 in Snow Light Snow
11:15 AM -7.6 °F -24.6 °F -13.0 °F 77% 29.88 in 8.0 mi NNW 9.2 mph - N/A Snow Light Snow
11:35 AM -7.6 °F -25.7 °F -13.0 °F 77% 29.88 in 4.0 mi North 10.4 mph - N/A Snow Light Snow
11:55 AM -7.6 °F -27.5 °F -13.0 °F 77% 29.87 in 5.0 mi NNW 12.7 mph - N/A Rain Light Freezing Rain
12:15 PM -9.4 °F -29.8 °F -14.8 °F 77% 29.87 in 5.0 mi NNW 12.7 mph - N/A Rain Light Freezing Rain
12:35 PM -9.4 °F -32.8 °F -14.8 °F 77% 29.87 in 2.5 mi North 17.3 mph - N/A   Haze
12:55 PM -9.4 °F -30.6 °F -14.8 °F 77% 29.86 in 7.0 mi NNW 13.8 mph - N/A   Overcast
1:15 PM -9.4 °F -32.1 °F -14.8 °F 77% 29.85 in 3.0 mi North 16.1 mph - N/A   Haze
1:35 PM -9.4 °F -32.8 °F -16.6 °F 71% 29.85 in 3.0 mi North 17.3 mph - N/A   Haze
1:55 PM -9.4 °F -34.1 °F -16.6 °F 71% 29.85 in 3.0 mi NNW 19.6 mph - N/A   Haze
2:15 PM -11.2 °F -37.0 °F -16.6 °F 77% 29.85 in 1.5 mi NNW 20.7 mph - N/A Rain Light Freezing Rain
2:35 PM -11.2 °F -35.8 °F -16.6 °F 77% 29.85 in 3.0 mi NNW 18.4 mph - N/A   Haze
2:55 PM -11.2 °F -33.7 °F -18.4 °F 70% 29.85 in 10.0 mi NNW 15.0 mph - N/A   Overcast
3:15 PM -11.2 °F -37.0 °F -18.4 °F 70% 29.84 in 5.0 mi NNW 20.7 mph - N/A   Haze
3:35 PM -13.0 °F -40.0 °F -18.4 °F 77% 29.84 in 1.5 mi NNW 21.9 mph - N/A   Haze
3:55 PM -13.0 °F -41.1 °F -20.2 °F 70% 29.85 in 1.0 mi NNW 24.2 mph - N/A Snow Light Snow
4:15 PM -13.0 °F -40.0 °F -20.2 °F 70% 29.86 in 0.8 mi NW 21.9 mph - N/A Rain Light Freezing Rain
4:35 PM -13.0 °F -39.4 °F -20.2 °F 70% 29.86 in 1.5 mi NNW 20.7 mph - N/A Rain Light Freezing Rain
4:55 PM -13.0 °F -40.0 °F -20.2 °F 70% 29.86 in 1.5 mi NW 21.9 mph - N/A Rain Light Freezing Rain
5:15 PM -13.0 °F -38.8 °F -20.2 °F 70% 29.87 in 5.0 mi NNW 19.6 mph - N/A   Haze
5:35 PM -14.8 °F -41.2 °F -22.0 °F 70% 29.88 in 5.0 mi NNW 19.6 mph - N/A   Haze
5:55 PM -16.6 °F -43.5 °F -22.0 °F 76% 29.87 in 7.0 mi NW 19.6 mph - N/A   Partly Cloudy
6:15 PM -16.6 °F -42.9 °F -22.0 °F 76% 29.88 in 7.0 mi NW 18.4 mph - N/A   Mostly Cloudy
6:35 PM -16.6 °F -43.5 °F -22.0 °F 76% 29.88 in 9.0 mi NNW 19.6 mph - N/A   Scattered Clouds
6:55 PM -16.6 °F -44.8 °F -22.0 °F 76% 29.89 in 4.0 mi NW 21.9 mph - N/A   Haze
7:15 PM -16.6 °F -43.5 °F -22.0 °F 76% 29.89 in 3.0 mi NW 19.6 mph - N/A   Haze
7:35 PM -16.6 °F -42.9 °F -22.0 °F 76% 29.89 in 7.0 mi NNW 18.4 mph - N/A   Mostly Cloudy
7:55 PM -18.4 °F -45.9 °F -23.8 °F 76% 29.89 in 8.0 mi NNW 19.6 mph - N/A   Mostly Cloudy
8:15 PM -18.4 °F -45.9 °F -23.8 °F 76% 29.89 in 5.0 mi NNW 19.6 mph - N/A   Haze
8:35 PM -18.4 °F -47.7 °F -25.6 °F 70% 29.89 in 3.0 mi NW 23.0 mph - N/A Snow Light Snow
8:55 PM -18.4 °F -47.7 °F -25.6 °F 70% 29.90 in 3.0 mi NW 23.0 mph - N/A Snow Light Snow
9:15 PM -18.4 °F -47.1 °F -25.6 °F 70% 29.90 in 3.0 mi NW 21.9 mph - N/A Snow Light Snow
9:35 PM -18.4 °F -47.7 °F -23.8 °F 76% 29.91 in 2.0 mi NW 23.0 mph 29.9 mph N/A Snow Light Snow
9:55 PM -18.4 °F -46.5 °F -25.6 °F 70% 29.91 in 5.0 mi NNW 20.7 mph - N/A   Haze
10:15 PM -18.4 °F -47.1 °F -25.6 °F 70% 29.91 in 5.0 mi NNW 21.9 mph - N/A   Haze
10:35 PM -18.4 °F -47.7 °F -25.6 °F 70% 29.92 in 3.0 mi NNW 23.0 mph - N/A Snow Light Snow
10:55 PM -18.4 °F -47.7 °F -23.8 °F 76% 29.92 in 4.0 mi NNW 23.0 mph - N/A Snow Light Snow
11:15 PM -18.4 °F -47.1 °F -23.8 °F 76% 29.93 in 3.0 mi NNW 21.9 mph - N/A   Haze
11:35 PM -18.4 °F -48.3 °F -23.8 °F 76% 29.94 in 3.0 mi NNW 24.2 mph - N/A Snow Light Snow
11:55 PM -18.4 °F -48.3 °F -23.8 °F 76% 29.95 in 2.0 mi NNW 24.2 mph 29.9 mph N/A Rain Light Freezing Rain